Location: Coffee Ditch
(40.9640°N, 122.7500°W)
Time: 07:33:09
(UTC+00:00)

NOSS 3-2 (A) - Pass Details

Date: 08 September 2024
Orbit: 700 x 1505 km, 63.4° (Epoch: 03 October)

Event Time Altitude Azimuth Distance (km) Brightness Sun altitude
Exits shadow 12:35:05 - 201° (SSW) 2,437 5.2 -13.7°
Reaches altitude 10° 12:35:39 10° 200° (SSW) 2,214 5.0 -13.6°
Maximum altitude 12:40:35 63° 120° (ESE) 876 3.5 -12.7°
Drops below altitude 10° 12:46:18 10° 40° (NE) 2,567 6.7 -11.7°
Sets 12:49:04 0° 38° (NE) 3,632 7.5 -11.2°
